This demonstration page uses our WeatherBlox Daily Observations layout. Learn more.

Left ArrowRight Arrow

41.55636, -103.73856

Hourly Observations for August 7, 2022

Temp ( °F °C ) Dew Point ( °F °C ) Humidity (%) Winds ( mph kmh ) Pressure ( in mb ) Visibility ( mi km ) Precip ( " mm )
12:56 am 00:56 Partly Cloudy 63 17.4 56 13.3 77 77 ESE 15 24 29.92 1013 10 16 0.00 0.00
1:56 am 01:56 Clear 61 16.2 55 12.7 80 80 E 12 19 29.93 1014 10 16 0.00 0.00
2:56 am 02:56 Cloudy 60 15.3 54 12.4 83 83 ESE 6 9 29.93 1014 10 16 0.00 0.00
4:56 am 04:56 Mostly Cloudy 61 15.9 56 13.4 85 85 NNW 7 11 29.96 1015 10 16 0.00 0.00
5:58 am 05:58 Cloudy 61 16.3 56 13.2 82 82 NW 7 11 29.98 1015 10 16 0.00 0.00
6:58 am 06:58 Cloudy 62 16.7 56 13.4 81 81 Calm 29.97 1015 10 16 0.00 0.00
7:58 am 07:58 Cloudy 64 17.5 56 13.4 77 77 NNW 9 15 30.01 1016 10 16 0.00 0.00
8:58 am 08:58 Cloudy 65 18.4 56 13.5 73 73 N 9 15 30.03 1017 10 16 0.00 0.00
9:58 am 09:58 Sunny 70 20.9 56 13.3 62 62 NNE 12 19 30.04 1017 10 16 0.00 0.00
10:58 am 10:58 Mostly Sunny 73 22.7 56 13.2 55 55 NE 13 20 30.06 1018 10 16 0.00 0.00
11:58 am 11:58 Mostly Cloudy 76 24.5 54 12.4 47 47 NNE 10 17 29.90 1012 10 16 0.00 0.00
12:58 pm 12:58 Mostly Sunny 79 26.1 53 11.8 41 41 N 7 11 29.86 1011 10 16 0.00 0.00
1:58 pm 13:58 Sunny 82 27.6 51 10.3 34 34 N 12 19 29.83 1010 10 16 0.00 0.00
2:58 pm 14:58 Mostly Sunny 83 28.2 50 9.9 32 32 NNE 13 20 29.81 1010 10 16 0.00 0.00
3:58 pm 15:58 Sunny 84 28.9 47 8.5 28 28 ENE 14 22 29.80 1009 10 16 0.00 0.00
4:58 pm 16:58 Sunny 82 27.5 47 8.4 30 30 E 5 7 30.02 1017 10 16 0.00 0.00
5:58 pm 17:58 Sunny 80 26.8 50 10 35 35 ENE 10 17 30.01 1016 10 16 0.00 0.00
6:58 pm 18:58 Sunny 79 25.9 49 9.7 36 36 E 10 17 30.04 1017 10 16 0.00 0.00
7:58 pm 19:58 Sunny 74 23.2 49 9.6 42 42 ESE 10 17 30.06 1018 10 16 0.00 0.00
8:58 pm 20:58 Clear 69 20.3 49 9.5 50 50 ESE 12 19 30.08 1019 10 16 0.00 0.00
9:58 pm 21:58 Clear 67 19.4 52 10.9 58 58 SE 12 19 30.09 1019 10 16 0.00 0.00
10:58 pm 22:58 Clear 66 18.8 53 11.8 64 64 SSE 10 17 30.08 1019 10 16 0.00 0.00
11:58 pm 23:58 Clear 66 18.9 54 12.4 66 66 S 8 13 30.08 1019 10 16 0.00 0.00

Powered by AerisWeather